This is the latest recevied weather packets stored in our database for station/object DL5ARK. If no packets are shown the sender has not sent any weather packets the latest 10 day(s).
| Time | Temp. | Humidity | Pressure | Rain* | Wind** | Luminosity | Snow |
|---|---|---|---|---|---|---|---|
| 1777795247 | 20° C | 47% | 1002.8 hPa | 0 mm | - | - | - |
| 1777795068 | 20° C | 45% | 1002.8 hPa | 0 mm | - | - | - |
| 1777794887 | 20° C | 45% | 1002.8 hPa | 0 mm | - | - | - |
| 1777794708 | 20° C | 46% | 1002.8 hPa | 0 mm | - | - | - |
| 1777794531 | 19.44° C | 48% | 1002.8 hPa | 0 mm | - | - | - |
| 1777794347 | 20° C | 47% | 1003 hPa | 0 mm | - | - | - |
| 1777794167 | 19.44° C | 47% | 1003 hPa | 0 mm | - | - | - |
| 1777793988 | 19.44° C | 46% | 1003 hPa | 0 mm | - | - | - |
| 1777793807 | 19.44° C | 47% | 1003 hPa | 0 mm | - | - | - |
| 1777793628 | 19.44° C | 49% | 1003 hPa | 0 mm | - | - | - |
| 1777793447 | 19.44° C | 45% | 1003 hPa | 0 mm | - | - | - |
| 1777793087 | 18.89° C | 49% | 1003 hPa | 0 mm | - | - | - |
| 1777792907 | 19.44° C | 51% | 1003 hPa | 0 mm | - | - | - |
| 1777792727 | 19.44° C | 50% | 1003 hPa | 0 mm | - | - | - |
| 1777792547 | 19.44° C | 49% | 1003.3 hPa | 0 mm | - | - | - |
| 1777792367 | 19.44° C | 51% | 1003 hPa | 0 mm | - | - | - |
| 1777792190 | 18.89° C | 52% | 1003.3 hPa | 0 mm | - | - | - |
| 1777792007 | 18.89° C | 51% | 1003.3 hPa | 0 mm | - | - | - |
| 1777791828 | 18.89° C | 52% | 1003.3 hPa | 0 mm | - | - | - |
| 1777791647 | 18.89° C | 51% | 1003.3 hPa | 0 mm | - | - | - |
| 1777791467 | 18.89° C | 51% | 1003.3 hPa | 0 mm | - | - | - |
| 1777791287 | 18.89° C | 52% | 1003.3 hPa | 0 mm | - | - | - |
| 1777790927 | 18.33° C | 53% | 1003.3 hPa | 0 mm | - | - | - |
| 1777790748 | 18.33° C | 57% | 1003.3 hPa | 0 mm | - | - | - |
| 1777790567 | 17.78° C | 61% | 1003.3 hPa | 0 mm | - | - | - |
* Rain latest hour (hover to see other rain measurements)
** Current wind speed in m/s (hover to see current wind gust speed)